Location: Bucquoy
(50.1391°N, 2.7097°E)
Time: 09:05:37
(UTC+00:00)

Cosmos 1300 - Pass Details

Date: 06 May 2021
Orbit: 510 x 513 km, 82.5° (Epoch: 21 June)

Event Time Altitude Azimuth Distance (km) Brightness Sun altitude
Rises 03:04:43 0° 353° (N) 2,643 6.8 -10.3°
Reaches altitude 10° 03:06:54 10° 359° (N) 1,751 6.0 -10.0°
Maximum altitude 03:10:39 51° 76° (ENE) 652 3.6 -9.5°
Drops below altitude 10° 03:14:22 10° 154° (SSE) 1,735 5.2 -9.1°
Sets 03:16:32 0° 159° (SSE) 2,616 6.1 -8.8°
